Theta_e
306 305 307 308 307 305 304 304 304 305 306 307 308 309 309 309 309 309 309 311 312 315 314 312 313 313 314 316 320 322 327 327 350 350 349 348 346 347 347 346 346 345 344 343
306 306 306 305 304 304 304 305 306 307 308 308 308 308 308 310 312 313 312 312 311 313 314 316 313 314 316 314 315 321 322 328 333 347 347 346 347 347 346 345 346 345 344 343
304 304 305 304 304 305 306 307 307 307 307 307 308 309 312 312 308 307 306 306 306 306 308 310 310 310 311 312 312 316 319 322 328 346 346 345 347 345 346 345 345 346 345 344
303 306 304 304 304 306 305 305 306 307 308 310 308 313 311 307 307 305 303 303 302 302 302 304 305 304 307 307 307 310 316 323 327 329 344 342 342 343 344 344 343 344 345 344
303 304 303 305 305 304 306 306 307 309 311 313 313 315 310 305 305 304 303 301 301 300 300 300 301 300 303 302 305 307 313 321 325 328 340 342 340 340 343 344 344 344 344 343
304 304 304 305 305 306 308 310 310 311 313 318 314 317 309 308 306 304 302 301 301 300 298 299 299 298 298 298 301 305 308 314 320 323 330 342 342 339 341 343 342 341 343 344
304 304 304 305 308 307 310 310 316 315 317 317 308 308 308 307 306 303 302 301 300 299 298 297 298 298 297 297 297 302 305 309 312 316 327 335 342 340 340 342 342 342 341 343
305 306 303 305 306 307 308 309 312 312 312 313 308 307 308 304 303 302 302 301 301 300 299 298 297 298 297 296 295 298 302 304 306 309 320 325 337 340 339 341 342 342 341 342
304 303 303 305 306 307 308 310 308 311 312 313 308 307 304 302 301 302 302 299 299 300 299 298 297 297 297 295 295 296 299 301 302 303 306 311 315 328 339 339 338 341 340 340
306 304 306 306 307 307 306 306 308 308 314 311 306 305 304 303 302 302 301 300 299 300 299 299 297 297 297 296 294 295 295 298 300 301 302 303 304 306 311 321 329 333 335 339
305 306 306 307 308 308 307 308 309 311 310 314 309 306 304 302 302 303 301 300 299 299 299 299 298 297 296 296 293 294 294 296 297 298 299 300 300 301 303 303 308 311 323 328
304 308 307 307 306 305 304 306 307 314 309 307 306 305 302 302 303 303 301 300 300 298 299 299 298 297 297 296 294 293 294 295 295 296 297 298 298 299 299 299 300 303 306 313
305 308 308 305 306 305 305 305 305 307 308 307 306 305 304 304 304 303 302 301 301 298 298 299 298 298 296 297 296 293 295 294 295 295 294 295 296 297 297 297 298 299 300 302
304 307 308 307 308 306 306 305 304 304 307 305 305 303 302 303 303 302 301 300 299 299 299 298 298 298 296 296 296 293 294 295 294 294 294 294 294 294 294 295 297 297 298 298
305 308 306 305 305 304 304 304 303 304 303 302 303 300 300 302 304 301 299 299 299 299 299 298 298 298 297 296 296 295 294 295 294 294 294 294 294 294 294 294 294 295 296 297
304 305 304 305 305 304 303 303 302 301 301 301 300 301 302 302 301 300 298 298 299 299 299 298 298 297 296 296 296 295 294 293 294 294 294 295 296 295 295 294 293 294 293 295
305 305 305 305 304 306 307 304 303 302 301 300 300 301 301 301 301 299 298 298 298 298 298 298 298 297 296 296 295 295 294 293 294 294 294 295 295 295 293 294 293 293 293 292
305 304 305 306 306 308 306 304 303 303 301 300 299 299 299 299 300 298 298 298 298 298 297 297 297 297 296 295 295 295 294 294 293 293 294 294 294 295 295 294 295 294 294 293
303 305 306 305 306 304 301 304 305 304 304 301 300 299 298 299 299 299 299 298 298 298 298 297 297 297 297 296 295 295 295 295 294 293 294 294 294 294 294 293 294 294 295 294
303 303 307 305 305 302 300 299 300 304 307 303 300 300 299 298 298 298 298 299 298 298 297 297 297 297 296 296 295 295 295 295 294 294 294 293 294 293 294 293 294 294 293 294
301 302 304 304 304 303 300 300 301 304 303 301 300 300 299 298 298 298 298 298 298 297 297 297 296 296 296 295 295 295 295 294 294 294 295 294 293 294 293 293 293 293 293 294
300 300 304 302 303 302 300 301 300 302 301 301 300 299 299 298 298 298 298 298 298 297 297 297 296 296 295 295 294 294 294 294 294 294 294 295 293 293 292 292 292 293 293 293
302 304 303 301 306 302 302 301 301 301 301 301 300 299 299 299 298 298 298 298 298 297 297 296 296 295 295 294 293 293 293 293 293 293 294 293 294 292 292 292 291 292 292 292
302 302 302 304 302 302 301 301 302 301 300 301 300 299 299 299 298 298 298 298 298 297 296 295 295 294 293 292 292 292 292 292 291 291 293 293 293 292 291 290 291 291 291 291
302 302 303 302 302 303 302 302 301 300 300 300 300 299 299 299 298 298 298 297 296 296 294 294 293 292 291 291 290 290 290 290 290 290 292 291 290 290 290 290 290 290 290 290
303 302 304 305 302 303 302 302 301 300 300 299 299 299 298 298 298 297 297 296 296 295 294 293 292 291 290 291 291 290 290 290 290 290 290 289 288 289 289 290 290 289 290 289
Wind_Speed
8 7 10 17 15 18 19 22 26 23 23 26 23 25 23 22 22 22 23 23 23 25 25 31 39 40 35 36 31 37 31 35 40 36 35 31 37 33 36 38 42 46 46 43
9 10 11 14 13 17 19 23 24 24 19 22 24 26 24 18 23 26 26 28 31 32 28 31 42 49 34 34 36 29 40 35 33 39 39 36 37 38 40 43 40 45 48 47
12 15 12 11 16 19 17 19 21 27 26 21 23 20 17 23 27 28 29 28 28 28 30 29 31 37 41 43 46 42 37 40 31 35 39 38 36 43 37 37 40 43 48 49
6 9 16 17 15 13 15 20 24 24 21 15 18 13 19 23 24 28 27 25 27 29 27 26 30 40 40 42 43 45 44 35 25 39 39 42 41 33 36 34 39 40 47 48
11 16 8 9 12 16 22 20 23 24 18 18 23 7 11 21 26 28 26 26 23 23 24 24 24 32 35 42 38 39 37 33 29 36 38 41 36 34 36 35 37 41 43 48
14 15 4 12 16 19 16 19 21 17 12 7 12 2 15 16 20 20 22 24 24 24 24 20 32 35 34 38 39 38 39 34 26 47 27 40 41 39 38 34 37 40 42 44
14 14 14 19 18 13 20 16 5 4 1 4 15 14 13 14 15 21 22 23 23 24 24 24 23 28 38 43 43 40 36 33 36 38 23 27 45 43 40 40 36 39 39 38
8 7 14 16 9 16 15 11 6 6 7 11 13 7 6 17 20 19 20 20 22 25 22 23 24 30 33 38 45 42 37 34 31 32 17 21 38 42 43 46 42 39 44 46
4 4 12 14 9 17 11 12 17 8 13 4 5 3 16 19 19 19 20 21 23 23 22 22 29 33 34 38 37 40 40 37 34 33 31 20 27 13 34 39 46 42 43 42
3 5 7 14 8 12 11 14 6 3 4 4 5 10 7 16 16 17 19 17 19 19 20 21 26 34 35 36 42 39 35 34 30 35 36 34 35 37 32 9 4 13 20 29
6 2 10 8 7 14 10 10 3 3 2 3 5 4 7 9 10 13 12 10 11 14 15 15 23 30 31 35 39 39 42 34 38 40 35 36 42 41 36 38 28 36 13 7
7 1 6 1 15 16 19 15 9 2 7 11 8 5 6 8 7 8 10 7 5 9 11 11 18 25 27 30 36 36 39 38 41 37 41 40 35 39 44 40 41 36 34 24
5 2 5 4 3 14 13 20 20 8 4 18 6 4 4 7 7 8 8 8 5 9 12 13 16 20 28 27 26 32 32 37 39 37 41 40 41 41 40 40 40 42 39 37
4 2 3 3 3 6 6 14 17 14 7 8 9 8 11 12 10 7 8 11 11 11 11 13 12 16 23 25 27 29 34 34 35 37 39 34 40 37 37 38 42 38 37 38
6 5 5 0 9 10 11 11 11 11 9 5 6 6 9 11 12 10 12 12 14 14 15 15 15 15 19 25 26 26 30 31 32 34 36 36 35 34 37 35 37 35 36 37
7 5 11 3 9 12 12 10 10 7 5 3 1 5 5 13 6 10 13 15 15 15 15 14 14 19 20 21 24 25 25 29 27 31 30 30 26 34 28 31 31 33 34 33
5 5 7 4 8 14 6 3 6 6 3 1 5 4 8 10 8 10 13 15 16 15 15 15 13 17 20 22 23 22 24 24 27 29 29 25 26 22 30 24 26 28 27 25
3 7 4 6 11 2 1 6 3 4 5 4 3 8 10 13 9 12 13 14 15 15 14 13 16 17 17 20 22 21 21 21 23 23 23 24 26 25 19 18 20 25 27 25
3 5 3 4 5 10 5 5 0 2 2 8 9 10 13 15 7 16 15 13 13 13 15 16 19 18 19 19 20 20 22 20 20 22 21 22 22 23 26 28 26 23 17 22
5 4 3 4 4 1 5 9 7 3 2 11 11 11 12 13 8 9 12 11 13 18 17 19 20 19 19 21 20 19 20 22 21 21 22 21 20 20 21 25 24 23 23 22
3 2 2 2 2 3 6 10 13 3 5 9 9 12 12 10 8 9 11 13 15 17 18 17 20 19 21 22 25 23 20 22 23 25 20 16 20 19 19 20 22 24 22 18
2 2 1 2 2 3 6 6 6 4 8 10 9 9 8 10 11 11 12 12 17 18 20 19 19 19 18 20 22 23 23 24 25 26 24 21 18 17 21 20 23 23 22 20
4 4 1 2 2 4 10 2 6 5 5 7 5 9 10 10 10 12 11 13 16 16 18 21 21 19 21 23 23 22 24 24 24 26 23 23 20 22 20 21 21 20 24 23
6 6 2 2 5 8 6 3 3 7 9 6 7 7 6 8 9 11 11 12 15 19 19 21 21 21 22 25 25 25 27 25 26 26 24 21 21 26 25 21 21 21 21 21
5 4 7 7 8 3 8 2 3 7 9 5 5 7 9 10 11 11 11 14 18 17 20 19 21 21 22 23 24 24 25 25 23 25 25 23 22 24 22 22 21 21 22 21
10 11 7 6 4 4 4 6 7 6 7 6 5 7 11 11 10 14 12 16 16 17 17 19 18 17 17 21 22 22 21 20 23 24 24 24 24 22 20 21 22 22 20 23
Wind_Direction
319 302 283 291 327 325 318 305 298 298 302 299 296 297 309 317 309 300 299 309 315 330 301 284 288 288 295 289 275 276 262 239 186 180 189 191 200 212 198 192 189 186 188 186
331 300 327 345 325 309 299 294 291 293 307 313 307 299 296 304 19 27 12 2 358 1 350 4 357 1 313 291 295 270 260 245 207 193 193 200 197 205 202 193 191 187 186 187
317 296 316 316 302 297 290 295 309 307 307 294 283 290 6 6 24 13 10 3 1 354 346 348 348 351 346 345 345 338 290 264 227 196 197 201 197 202 202 197 192 187 186 187
309 315 311 300 291 317 313 306 295 297 301 296 308 297 53 7 12 19 12 9 358 353 352 353 348 345 349 341 342 340 336 310 261 215 200 201 212 201 206 200 198 186 187 188
306 305 337 302 352 331 297 311 297 283 276 280 283 275 0 17 15 13 10 10 4 358 350 353 354 346 347 344 344 345 341 327 293 299 203 195 207 209 200 206 198 194 191 191
321 282 20 22 341 315 333 321 302 274 264 265 21 13 27 21 20 21 12 9 3 359 354 346 354 358 354 350 353 358 350 344 297 311 225 200 198 203 208 201 198 198 194 192
335 65 7 21 345 343 347 343 321 356 193 51 54 75 47 31 24 23 18 14 8 2 358 354 349 350 354 356 356 359 357 355 350 333 256 262 197 199 202 205 200 195 207 197
354 331 10 341 356 354 353 352 345 317 331 328 24 54 37 29 21 14 8 5 5 7 357 351 349 353 354 353 1 0 357 1 3 358 330 283 236 200 202 207 202 200 199 206
333 295 324 317 344 16 333 345 308 272 262 80 41 160 54 30 16 6 10 13 6 359 356 355 350 349 353 0 355 356 2 6 4 14 23 36 25 323 206 210 213 206 201 212
167 293 288 339 6 6 354 1 332 315 287 86 70 57 29 15 359 356 7 4 358 353 355 355 357 352 353 359 360 360 1 11 5 23 29 36 42 35 40 28 264 240 245 218
144 203 312 322 41 40 4 354 293 239 253 179 126 76 353 5 342 345 340 346 349 341 346 350 355 351 351 3 3 0 3 3 15 18 25 36 42 44 43 40 34 32 14 347
9 99 297 329 67 58 34 17 348 318 62 77 92 78 298 313 332 342 326 304 306 349 352 348 352 355 354 7 4 359 3 4 20 11 22 24 42 44 43 36 34 39 29 36
294 338 317 91 127 41 37 22 23 13 64 35 57 71 313 334 339 323 326 333 332 2 360 358 3 9 2 1 7 356 358 8 16 15 22 15 25 36 40 35 33 36 32 35
263 252 245 336 97 59 45 42 29 29 36 59 37 18 354 337 327 328 354 359 2 5 11 4 10 9 7 2 9 358 0 10 13 16 25 14 21 22 29 36 40 34 34 35
218 240 274 334 125 100 82 57 46 56 34 48 29 345 328 310 304 356 2 5 7 7 9 11 7 7 12 5 7 7 6 4 10 15 19 16 16 17 25 26 37 34 36 34
353 312 308 351 164 106 76 67 67 61 43 69 321 295 264 291 316 9 6 10 8 3 7 10 5 6 10 12 6 7 6 3 11 19 14 9 9 20 10 22 24 29 25 31
333 316 315 277 200 165 75 5 78 103 135 350 6 282 278 316 64 30 9 11 7 4 2 1 10 10 10 13 5 7 6 4 8 18 8 9 10 16 15 10 17 22 21 18
338 343 341 298 333 224 137 180 213 83 97 14 26 3 349 341 88 52 26 10 1 359 8 358 3 9 19 13 6 1 5 17 10 8 3 2 6 8 6 7 8 13 14 23
37 4 327 320 360 110 51 114 174 306 23 347 13 16 355 347 332 49 17 12 359 352 2 360 356 7 12 19 2 5 1 7 11 3 2 3 2 359 6 5 4 3 355 7
129 41 356 349 314 63 32 350 359 127 211 310 3 8 3 351 355 4 355 1 357 351 359 357 354 2 4 9 4 356 1 356 7 1 354 359 1 360 3 359 356 354 357 1
315 289 246 342 309 106 17 349 314 246 346 340 12 8 6 355 351 349 344 350 353 348 355 358 351 359 358 8 359 354 1 356 358 349 348 359 357 354 357 354 353 352 353 349
261 299 238 254 243 224 347 4 19 328 322 346 2 6 354 348 338 347 347 345 345 345 349 355 354 349 359 360 359 348 350 350 352 346 350 353 5 6 349 354 349 345 342 348
242 220 315 254 339 260 264 292 303 286 297 298 344 0 1 338 338 327 339 339 337 339 344 347 342 344 354 358 352 344 338 344 352 344 345 347 350 358 353 348 346 345 349 346
248 180 216 278 243 246 276 260 356 337 334 2 357 327 337 329 326 321 338 334 339 341 352 338 342 351 351 348 344 343 340 349 346 337 339 348 354 351 345 347 346 345 343 338
278 217 233 266 293 163 247 161 342 354 320 295 303 350 334 338 331 335 338 347 338 348 337 353 350 355 344 338 338 341 345 344 338 333 340 346 349 343 337 338 337 336 331 330
242 237 226 238 279 255 320 16 351 330 309 338 339 326 318 334 327 323 332 322 323 336 346 348 345 335 331 323 333 340 337 337 340 337 340 340 337 333 329 326 328 333 326 328